Portada
METAR-TAF:

METAR-TAF

Aeroports :

Crestview, Florida, Estats Units d'Amèrica

latitud: 30-46-20N, longitud: 086-31-12W, altitud: 65 m

Observació

L'informe es va fer fa 52 minuts, a les 20:53 UTC
Vent 9 kt del Sud-Oest
Temperatura 17°C
Humitat 27%
Pressió 1022 hPa
Visibilitat: 16.1 km
Cel clar

METAR: KCEW 282053Z AUTO 23009KT 10SM CLR 17/M02 A3018 RMK AO2 RAB41E51 SLP219 P0000 60000 T01671022 56034

Hora: 15:45 (21:45 UTC)


TAF: manca

Observacions i pronòstics meteorològics de més de 4000 aeroports (METAR i TAF).

Les estacions disponibles són els punts grocs i vermells al mapa.

Posi el ratolí al punt desitjat per veure el nom de l'estació.

Feu clic per veure les observacions i els pronòstics meteorològics.

Per canviar el mapa: feu clic els botons verds amb una creu de color negre per apropar; al botó verd amb un guió per allunyar la imatge; o en les fletxes verdes per a mapes adjacents.


METAR-TAF: